Year,Month,Day,Hour,Minute,Value (Times are PST for temperature in C)
2005,05,28,00,00,19.10
2005,05,28,00,01,19.10
2005,05,28,00,02,19.10
2005,05,28,00,03,19.10
2005,05,28,00,06,19.10
2005,05,28,00,07,19.10
2005,05,28,00,08,19.10
2005,05,28,00,09,19.10
2005,05,28,00,10,19.10
2005,05,28,00,11,19.10
2005,05,28,00,16,18.80
2005,05,28,00,17,18.70
2005,05,28,00,21,18.60
2005,05,28,00,22,18.60
2005,05,28,00,23,18.60
2005,05,28,00,32,18.70
2005,05,28,00,33,18.70
2005,05,28,00,35,18.70
2005,05,28,00,38,18.50
2005,05,28,00,39,18.50
2005,05,28,00,51,17.90
2005,05,28,00,52,17.90
2005,05,28,00,53,17.90
2005,05,28,00,54,17.90
2005,05,28,00,55,17.80
2005,05,28,00,57,17.80
2005,05,28,00,58,17.80
2005,05,28,00,59,17.70
2005,05,28,01,00,17.70
2005,05,28,01,01,17.70
2005,05,28,01,02,17.70
2005,05,28,01,03,17.60
2005,05,28,01,04,17.60
2005,05,28,01,05,17.60
2005,05,28,01,06,17.60
2005,05,28,01,07,17.50
2005,05,28,01,08,17.50
2005,05,28,01,09,17.50
2005,05,28,01,10,17.50
2005,05,28,01,11,17.50
2005,05,28,01,12,17.40
2005,05,28,01,13,17.40
2005,05,28,01,14,17.40
2005,05,28,01,15,17.30
2005,05,28,01,16,17.30
2005,05,28,01,17,17.30
2005,05,28,01,18,17.30
2005,05,28,01,19,17.30
2005,05,28,01,20,17.30
2005,05,28,01,21,17.30
2005,05,28,01,22,17.30
2005,05,28,01,23,17.20
2005,05,28,01,24,17.20
2005,05,28,01,25,17.20
2005,05,28,01,26,17.20
2005,05,28,01,27,17.20
2005,05,28,01,28,17.20
2005,05,28,01,29,17.10
2005,05,28,01,30,17.10
2005,05,28,01,31,17.10
2005,05,28,01,32,17.10
2005,05,28,01,33,17.00
2005,05,28,01,34,17.00
2005,05,28,01,35,17.00
2005,05,28,01,36,16.90
2005,05,28,01,37,16.90
2005,05,28,01,38,16.90
2005,05,28,01,39,16.80
2005,05,28,01,40,16.80
2005,05,28,01,41,16.80
2005,05,28,01,42,16.70
2005,05,28,01,43,16.70
2005,05,28,01,44,16.70
2005,05,28,01,45,16.70
2005,05,28,01,46,16.70
2005,05,28,01,47,16.70
2005,05,28,01,48,16.70
2005,05,28,01,49,16.70
2005,05,28,01,50,16.70
2005,05,28,01,51,16.60
2005,05,28,01,52,16.60
2005,05,28,01,53,16.60
2005,05,28,01,54,16.60
2005,05,28,01,55,16.60
2005,05,28,01,56,16.60
2005,05,28,01,57,16.60
2005,05,28,01,58,16.50
2005,05,28,01,59,16.40
2005,05,28,02,00,16.40
2005,05,28,02,01,16.40
2005,05,28,02,02,16.40
2005,05,28,02,03,16.40
2005,05,28,02,04,16.40
2005,05,28,02,05,16.40
2005,05,28,02,06,16.40
2005,05,28,02,07,16.40
2005,05,28,02,08,16.40
2005,05,28,02,09,16.40
2005,05,28,02,10,16.40
2005,05,28,02,11,16.40
2005,05,28,02,12,16.40
2005,05,28,02,13,16.40
2005,05,28,02,14,16.40
2005,05,28,02,15,16.40
2005,05,28,02,16,16.40
2005,05,28,02,17,16.40
2005,05,28,02,18,16.50
2005,05,28,02,19,16.60
2005,05,28,02,20,16.60
2005,05,28,02,21,16.60
2005,05,28,02,22,16.70
2005,05,28,02,23,16.70
2005,05,28,02,24,16.70
2005,05,28,02,25,16.70
2005,05,28,02,26,16.70
2005,05,28,02,27,16.70
2005,05,28,02,28,16.60
2005,05,28,02,29,16.60
2005,05,28,02,30,16.50
2005,05,28,02,31,16.40
2005,05,28,02,32,16.40
2005,05,28,02,33,16.30
2005,05,28,02,34,16.30
2005,05,28,02,35,16.30
2005,05,28,02,36,16.20
2005,05,28,02,37,16.20
2005,05,28,02,38,16.20
2005,05,28,02,39,16.20
2005,05,28,02,40,16.20
2005,05,28,02,41,16.10
2005,05,28,02,42,16.20
2005,05,28,02,43,16.20
2005,05,28,02,44,16.20
2005,05,28,02,45,16.20
2005,05,28,02,46,16.20
2005,05,28,02,47,16.20
2005,05,28,02,48,16.10
2005,05,28,02,49,16.10
2005,05,28,02,50,16.10
2005,05,28,02,51,16.00
2005,05,28,02,52,15.90
2005,05,28,02,53,15.90
2005,05,28,02,54,15.80
2005,05,28,02,55,15.80
2005,05,28,02,56,15.80
2005,05,28,02,57,15.70
2005,05,28,02,58,15.60
2005,05,28,02,59,15.60
2005,05,28,03,00,15.50
2005,05,28,03,01,15.50
2005,05,28,03,02,15.40
2005,05,28,03,03,15.40
2005,05,28,03,04,15.30
2005,05,28,03,05,15.30
2005,05,28,03,06,15.30
2005,05,28,03,07,15.30
2005,05,28,03,08,15.30
2005,05,28,03,09,15.30
2005,05,28,03,10,15.20
2005,05,28,03,11,15.20
2005,05,28,03,12,15.20
2005,05,28,03,13,15.20
2005,05,28,03,14,15.20
2005,05,28,03,15,15.20
2005,05,28,03,16,15.10
2005,05,28,03,17,15.10
2005,05,28,03,18,15.10
2005,05,28,03,19,15.10
2005,05,28,03,20,15.10
2005,05,28,03,21,15.10
2005,05,28,03,22,15.10
2005,05,28,03,23,15.00
2005,05,28,03,24,15.00
2005,05,28,03,25,14.90
2005,05,28,03,26,14.90
2005,05,28,03,27,14.80
2005,05,28,03,28,14.80
2005,05,28,03,29,14.80
2005,05,28,03,30,14.80
2005,05,28,03,31,14.80
2005,05,28,03,32,14.80
2005,05,28,03,33,14.80
2005,05,28,03,34,14.70
2005,05,28,03,35,14.70
2005,05,28,03,36,14.70
2005,05,28,03,37,14.80
2005,05,28,03,38,14.80
2005,05,28,03,39,14.80
2005,05,28,03,40,14.80
2005,05,28,03,41,14.80
2005,05,28,03,42,14.80
2005,05,28,03,43,14.80
2005,05,28,03,44,14.90
2005,05,28,03,45,14.90
2005,05,28,03,46,15.00
2005,05,28,03,47,15.10
2005,05,28,03,48,15.10
2005,05,28,03,49,15.20
2005,05,28,03,50,15.20
2005,05,28,03,51,15.30
2005,05,28,03,52,15.30
2005,05,28,03,53,15.30
2005,05,28,03,54,15.30
2005,05,28,03,55,15.30
2005,05,28,03,56,15.30
2005,05,28,03,57,15.30
2005,05,28,03,58,15.30
2005,05,28,03,59,15.30
2005,05,28,04,00,15.30
2005,05,28,04,01,15.30
2005,05,28,04,02,15.20
2005,05,28,04,03,15.20
2005,05,28,04,04,15.10
2005,05,28,04,05,15.00
2005,05,28,04,06,15.00
2005,05,28,04,07,14.90
2005,05,28,04,08,14.90
2005,05,28,04,09,14.80
2005,05,28,04,10,14.80
2005,05,28,04,11,14.70
2005,05,28,04,12,14.70
2005,05,28,04,13,14.70
2005,05,28,04,14,14.60
2005,05,28,04,15,14.60
2005,05,28,04,16,14.60
2005,05,28,04,17,14.60
2005,05,28,04,18,14.60
2005,05,28,04,19,14.60
2005,05,28,04,20,14.70
2005,05,28,04,21,14.70
2005,05,28,04,22,14.70
2005,05,28,04,23,14.70
2005,05,28,04,24,14.70
2005,05,28,04,25,14.70
2005,05,28,04,26,14.60
2005,05,28,04,27,14.60
2005,05,28,04,28,14.60
2005,05,28,04,29,14.50
2005,05,28,04,30,14.50
2005,05,28,04,31,14.40
2005,05,28,04,32,14.40
2005,05,28,04,33,14.30
2005,05,28,04,34,14.30
2005,05,28,04,35,14.20
2005,05,28,04,36,14.20
2005,05,28,04,37,14.20
2005,05,28,04,38,14.20
2005,05,28,04,39,14.10
2005,05,28,04,40,14.10
2005,05,28,04,41,14.10
2005,05,28,04,42,14.00
2005,05,28,04,43,14.00
2005,05,28,04,44,13.90
2005,05,28,04,45,13.90
2005,05,28,04,46,13.90
2005,05,28,04,47,13.80
2005,05,28,04,48,13.80
2005,05,28,04,49,13.70
2005,05,28,04,50,13.70
2005,05,28,04,51,13.70
2005,05,28,04,52,13.70
2005,05,28,04,53,13.70
2005,05,28,04,54,13.60
2005,05,28,04,55,13.60
2005,05,28,04,56,13.60
2005,05,28,04,57,13.60
2005,05,28,04,58,13.60
2005,05,28,04,59,13.70
2005,05,28,05,00,13.70
2005,05,28,05,01,13.70
2005,05,28,05,02,13.70
2005,05,28,05,03,13.70
2005,05,28,05,04,13.70
2005,05,28,05,05,13.70
2005,05,28,05,06,13.70
2005,05,28,05,07,13.80
2005,05,28,05,08,13.90
2005,05,28,05,09,13.90
2005,05,28,05,10,13.90
2005,05,28,05,11,13.80
2005,05,28,05,12,13.80
2005,05,28,05,13,13.80
2005,05,28,05,14,13.90
2005,05,28,05,15,13.90
2005,05,28,05,16,14.00
2005,05,28,05,17,14.00
2005,05,28,05,18,14.10
2005,05,28,05,19,14.20
2005,05,28,05,20,14.20
2005,05,28,05,21,14.20
2005,05,28,05,22,14.30
2005,05,28,05,23,14.30
2005,05,28,05,24,14.30
2005,05,28,05,25,14.30
2005,05,28,05,26,14.40
2005,05,28,05,27,14.40
2005,05,28,05,28,14.40
2005,05,28,05,29,14.50
2005,05,28,05,30,14.50
2005,05,28,05,31,14.50
2005,05,28,05,32,14.50
2005,05,28,05,33,14.50
2005,05,28,05,34,14.50
2005,05,28,05,35,14.50
2005,05,28,05,36,14.40
2005,05,28,05,37,14.40
2005,05,28,05,38,14.30
2005,05,28,05,39,14.20
2005,05,28,05,40,14.20
2005,05,28,05,41,14.10
2005,05,28,05,42,14.10
2005,05,28,05,43,14.00
2005,05,28,05,44,14.10
2005,05,28,05,45,14.10
2005,05,28,05,46,14.10
2005,05,28,05,47,14.10
2005,05,28,05,48,14.20
2005,05,28,05,49,14.20
2005,05,28,05,50,14.20
2005,05,28,05,51,14.20
2005,05,28,05,52,14.40
2005,05,28,05,53,14.40
2005,05,28,05,54,14.50
2005,05,28,05,55,14.50
2005,05,28,05,56,14.50
2005,05,28,05,57,14.60
2005,05,28,05,58,14.60
2005,05,28,05,59,14.60
2005,05,28,06,00,14.70
2005,05,28,06,01,14.70
2005,05,28,06,02,14.70
2005,05,28,06,03,14.70
2005,05,28,06,04,14.70
2005,05,28,06,05,14.80
2005,05,28,06,06,14.80
2005,05,28,06,07,14.80
2005,05,28,06,08,14.80
2005,05,28,06,09,14.80
2005,05,28,06,10,14.80
2005,05,28,06,11,14.90
2005,05,28,06,12,14.90
2005,05,28,06,13,14.90
2005,05,28,06,14,14.90
2005,05,28,06,15,14.90
2005,05,28,06,16,14.90
2005,05,28,06,17,14.90
2005,05,28,06,18,14.90
2005,05,28,06,19,14.90
2005,05,28,06,20,14.90
2005,05,28,06,21,15.00
2005,05,28,06,22,15.00
2005,05,28,06,23,15.00
2005,05,28,06,24,15.10
2005,05,28,06,25,15.10
2005,05,28,06,26,15.20
2005,05,28,06,27,15.30
2005,05,28,06,28,15.40
2005,05,28,06,29,15.50
2005,05,28,06,30,15.60
2005,05,28,06,31,15.70
2005,05,28,06,32,15.80
2005,05,28,06,33,16.00
2005,05,28,06,34,16.10
2005,05,28,06,35,16.10
2005,05,28,06,36,16.20
2005,05,28,06,37,16.30
2005,05,28,06,38,16.40
2005,05,28,06,39,16.40
2005,05,28,06,40,16.40
2005,05,28,06,41,16.40
2005,05,28,06,42,16.50
2005,05,28,06,43,16.50
2005,05,28,06,44,16.40
2005,05,28,06,45,16.40
2005,05,28,06,46,16.40
2005,05,28,06,47,16.40
2005,05,28,06,48,16.40
2005,05,28,06,49,16.40
2005,05,28,06,50,16.40
2005,05,28,06,51,16.40
2005,05,28,06,52,16.50
2005,05,28,06,53,16.60
2005,05,28,06,54,16.70
2005,05,28,06,55,16.80
2005,05,28,06,56,16.90
2005,05,28,06,57,16.90
2005,05,28,06,58,17.00
2005,05,28,06,59,17.10
2005,05,28,07,00,17.20
2005,05,28,07,01,17.30
2005,05,28,07,02,17.30
2005,05,28,07,03,17.40
2005,05,28,07,04,17.50
2005,05,28,07,05,17.60
2005,05,28,07,06,17.70
2005,05,28,07,07,17.80
2005,05,28,07,08,17.90
2005,05,28,07,09,17.90
2005,05,28,07,10,18.00
2005,05,28,07,11,18.10
2005,05,28,07,12,18.20
2005,05,28,07,13,18.20
2005,05,28,07,14,18.20
2005,05,28,07,15,18.30
2005,05,28,07,16,18.40
2005,05,28,07,17,18.50
2005,05,28,07,18,18.50
2005,05,28,07,19,18.60
2005,05,28,07,20,18.70
2005,05,28,07,21,18.70
2005,05,28,07,22,18.80
2005,05,28,07,23,18.90
2005,05,28,07,24,19.00
2005,05,28,07,25,19.10
2005,05,28,07,26,19.10
2005,05,28,07,27,19.00
2005,05,28,07,28,18.90
2005,05,28,07,29,18.90
2005,05,28,07,30,18.80
2005,05,28,07,31,18.80
2005,05,28,07,32,18.70
2005,05,28,07,33,18.70
2005,05,28,07,34,18.60
2005,05,28,07,35,18.60
2005,05,28,07,36,18.60
2005,05,28,07,37,18.60
2005,05,28,07,38,18.60
2005,05,28,07,39,18.60
2005,05,28,07,40,18.60
2005,05,28,07,41,18.60
2005,05,28,07,42,18.60
2005,05,28,07,43,18.60
2005,05,28,07,44,18.60
2005,05,28,07,45,18.60
2005,05,28,07,46,18.60
2005,05,28,07,47,18.60
2005,05,28,07,48,18.70
2005,05,28,07,49,18.70
2005,05,28,07,50,18.90
2005,05,28,07,51,18.90
2005,05,28,07,52,19.10
2005,05,28,07,53,19.30
2005,05,28,07,54,19.40
2005,05,28,07,55,19.50
2005,05,28,07,56,19.50
2005,05,28,07,57,19.60
2005,05,28,07,58,19.70
2005,05,28,07,59,19.70
2005,05,28,08,00,19.70
2005,05,28,08,01,19.60
2005,05,28,08,02,19.50
2005,05,28,08,03,19.50
2005,05,28,08,04,19.50
2005,05,28,08,05,19.60
2005,05,28,08,06,19.80
2005,05,28,08,07,19.90
2005,05,28,08,08,19.90
2005,05,28,08,09,19.90
2005,05,28,08,10,19.90
2005,05,28,08,11,19.90
2005,05,28,08,12,20.00
2005,05,28,08,13,20.30
2005,05,28,08,14,20.30
2005,05,28,08,15,20.30
2005,05,28,08,16,20.30
2005,05,28,08,17,20.20
2005,05,28,08,18,20.20
2005,05,28,08,19,20.20
2005,05,28,08,20,20.30
2005,05,28,08,21,20.40
2005,05,28,08,22,20.40
2005,05,28,08,23,20.50
2005,05,28,08,24,20.60
2005,05,28,08,25,20.60
2005,05,28,08,26,20.60
2005,05,28,08,27,20.60
2005,05,28,08,28,20.60
2005,05,28,08,29,20.70
2005,05,28,08,30,20.80
2005,05,28,08,31,20.80
2005,05,28,08,32,20.70
2005,05,28,08,33,20.70
2005,05,28,08,34,20.70
2005,05,28,08,35,20.90
2005,05,28,08,36,21.00
2005,05,28,08,37,21.20
2005,05,28,08,38,21.40
2005,05,28,08,39,21.60
2005,05,28,08,40,21.70
2005,05,28,08,41,21.90
2005,05,28,08,42,22.00
2005,05,28,08,43,22.20
2005,05,28,08,44,22.30
2005,05,28,08,45,22.50
2005,05,28,08,46,22.60
2005,05,28,08,47,22.70
2005,05,28,08,48,22.70
2005,05,28,08,49,22.60
2005,05,28,08,50,22.60
2005,05,28,08,51,22.60
2005,05,28,08,52,22.70
2005,05,28,08,53,22.80
2005,05,28,08,54,22.80
2005,05,28,08,55,22.90
2005,05,28,08,56,23.00
2005,05,28,08,57,23.10
2005,05,28,08,58,23.10
2005,05,28,08,59,23.20
2005,05,28,09,00,23.30
2005,05,28,09,01,23.30
2005,05,28,09,02,23.30
2005,05,28,09,03,23.40
2005,05,28,09,04,23.50
2005,05,28,09,05,23.40
2005,05,28,09,06,23.40
2005,05,28,09,07,23.40
2005,05,28,09,08,23.40
2005,05,28,09,09,23.30
2005,05,28,09,10,23.30
2005,05,28,09,11,23.30
2005,05,28,09,12,23.30
2005,05,28,09,13,23.20
2005,05,28,09,14,23.00
2005,05,28,09,15,22.70
2005,05,28,09,16,22.50
2005,05,28,09,17,22.50
2005,05,28,09,18,22.50
2005,05,28,09,19,22.40
2005,05,28,09,20,22.40
2005,05,28,09,21,22.20
2005,05,28,09,22,22.10
2005,05,28,09,23,22.10
2005,05,28,09,24,22.00
2005,05,28,09,25,22.10
2005,05,28,09,26,22.20
2005,05,28,09,27,22.30
2005,05,28,09,28,22.50
2005,05,28,09,29,22.60
2005,05,28,09,30,22.80
2005,05,28,09,31,22.90
2005,05,28,09,32,23.00
2005,05,28,09,33,23.10
2005,05,28,09,34,23.20
2005,05,28,09,35,23.20
2005,05,28,09,36,23.30
2005,05,28,09,37,23.30
2005,05,28,09,38,23.30
2005,05,28,09,39,23.30
2005,05,28,09,40,23.30
2005,05,28,09,41,23.20
2005,05,28,09,42,23.00
2005,05,28,09,43,22.70
2005,05,28,09,44,22.60
2005,05,28,09,45,22.50
2005,05,28,09,46,22.50
2005,05,28,09,47,22.50
2005,05,28,09,48,22.60
2005,05,28,09,49,22.50
2005,05,28,09,50,22.50
2005,05,28,09,51,22.50
2005,05,28,09,52,22.60
2005,05,28,09,53,22.60
2005,05,28,09,54,22.60
2005,05,28,09,55,22.60
2005,05,28,09,56,22.40
2005,05,28,09,57,22.20
2005,05,28,09,58,21.90
2005,05,28,09,59,21.60
2005,05,28,10,00,21.40
2005,05,28,10,01,21.10
2005,05,28,10,02,21.00
2005,05,28,10,03,21.00
2005,05,28,10,04,20.90
2005,05,28,10,05,20.90
2005,05,28,10,06,20.90
2005,05,28,10,07,20.90
2005,05,28,10,08,20.90
2005,05,28,10,09,21.00
2005,05,28,10,10,21.10
2005,05,28,10,11,21.10
2005,05,28,10,12,21.20
2005,05,28,10,13,21.30
2005,05,28,10,14,21.30
2005,05,28,10,15,21.40
2005,05,28,10,16,21.40
2005,05,28,10,17,21.50
2005,05,28,10,18,21.60
2005,05,28,10,19,21.70
2005,05,28,10,20,21.80
2005,05,28,10,21,21.80
2005,05,28,10,22,21.90
2005,05,28,10,23,22.10
2005,05,28,10,24,22.20
2005,05,28,10,25,22.20
2005,05,28,10,26,22.20
2005,05,28,10,27,22.20
2005,05,28,10,28,22.30
2005,05,28,10,29,22.30
2005,05,28,10,30,22.40
2005,05,28,10,31,22.50
2005,05,28,10,32,22.60
2005,05,28,10,33,22.60
2005,05,28,10,34,22.60
2005,05,28,10,35,22.40
2005,05,28,10,36,22.30
2005,05,28,10,37,22.20
2005,05,28,10,38,22.20
2005,05,28,10,39,22.10
2005,05,28,10,40,22.00
2005,05,28,10,41,22.00
2005,05,28,10,42,22.10
2005,05,28,10,43,22.20
2005,05,28,10,44,22.20
2005,05,28,10,45,22.30
2005,05,28,10,46,22.40
2005,05,28,10,47,22.40
2005,05,28,10,48,22.40
2005,05,28,10,49,22.50
2005,05,28,10,50,22.70
2005,05,28,10,51,22.70
2005,05,28,10,52,22.70
2005,05,28,10,53,22.80
2005,05,28,10,54,22.90
2005,05,28,10,55,23.00
2005,05,28,10,56,23.10
2005,05,28,10,57,23.30
2005,05,28,10,58,23.40
2005,05,28,10,59,23.50
2005,05,28,11,00,23.60
2005,05,28,11,01,23.60
2005,05,28,11,02,23.60
2005,05,28,11,03,23.70
2005,05,28,11,04,23.80
2005,05,28,11,05,24.00
2005,05,28,11,06,24.10
2005,05,28,11,07,24.10
2005,05,28,11,08,24.00
2005,05,28,11,09,23.90
2005,05,28,11,10,23.90
2005,05,28,11,11,23.70
2005,05,28,11,12,23.60
2005,05,28,11,13,23.60
2005,05,28,11,14,23.70
2005,05,28,11,15,23.70
2005,05,28,11,16,23.80
2005,05,28,11,17,24.00
2005,05,28,11,18,24.10
2005,05,28,11,19,24.10
2005,05,28,11,20,23.90
2005,05,28,11,21,23.70
2005,05,28,11,22,23.60
2005,05,28,11,23,23.50
2005,05,28,11,24,23.30
2005,05,28,11,25,23.20
2005,05,28,11,26,23.20
2005,05,28,11,27,23.20
2005,05,28,11,28,23.30
2005,05,28,11,29,23.20
2005,05,28,11,30,23.10
2005,05,28,11,31,23.00
2005,05,28,11,32,23.10
2005,05,28,11,33,23.10
2005,05,28,11,34,23.10
2005,05,28,11,35,23.20
2005,05,28,11,36,23.20
2005,05,28,11,37,23.40
2005,05,28,11,38,23.50
2005,05,28,11,39,23.70
2005,05,28,11,40,23.80
2005,05,28,11,41,24.00
2005,05,28,11,42,24.30
2005,05,28,11,43,24.60
2005,05,28,11,44,24.70
2005,05,28,11,45,24.70
2005,05,28,11,46,24.70
2005,05,28,11,47,24.60
2005,05,28,11,48,24.60
2005,05,28,11,49,24.70
2005,05,28,11,50,24.70
2005,05,28,11,51,24.50
2005,05,28,11,52,24.40
2005,05,28,11,53,24.50
2005,05,28,11,54,24.30
2005,05,28,11,55,24.10
2005,05,28,11,56,23.90
2005,05,28,11,57,23.80
2005,05,28,11,58,23.60
2005,05,28,11,59,23.50
2005,05,28,12,00,23.40
2005,05,28,12,01,23.30
2005,05,28,12,02,23.50
2005,05,28,12,03,23.70
2005,05,28,12,06,24.00
2005,05,28,12,07,24.10
2005,05,28,12,08,23.90
2005,05,28,12,09,23.70
2005,05,28,12,10,23.70
2005,05,28,12,11,23.80
2005,05,28,12,12,23.90
2005,05,28,12,13,24.00
2005,05,28,12,14,24.10
2005,05,28,12,15,24.30
2005,05,28,12,16,24.30
2005,05,28,12,17,24.20
2005,05,28,12,18,24.30
2005,05,28,12,19,24.30
2005,05,28,12,20,24.20
2005,05,28,12,21,24.20
2005,05,28,12,22,24.20
2005,05,28,12,23,24.20
2005,05,28,12,24,24.20
2005,05,28,12,25,24.40
2005,05,28,12,26,24.50
2005,05,28,12,27,24.30
2005,05,28,12,28,24.20
2005,05,28,12,29,24.10
2005,05,28,12,30,24.00
2005,05,28,12,31,23.80
2005,05,28,12,32,23.70
2005,05,28,12,33,23.80
2005,05,28,12,34,23.80
2005,05,28,12,35,23.70
2005,05,28,12,36,23.60
2005,05,28,12,37,23.60
2005,05,28,12,38,23.60
2005,05,28,12,39,23.60
2005,05,28,12,40,23.50
2005,05,28,12,41,23.40
2005,05,28,12,42,23.30
2005,05,28,12,43,23.30
2005,05,28,12,44,23.30
2005,05,28,12,45,23.20
2005,05,28,12,46,23.10
2005,05,28,12,47,23.20
2005,05,28,12,48,23.20
2005,05,28,12,49,23.20
2005,05,28,12,50,23.20
2005,05,28,12,51,23.20
2005,05,28,12,52,23.30
2005,05,28,12,53,23.30
2005,05,28,12,54,23.30
2005,05,28,12,55,23.40
2005,05,28,12,56,23.30
2005,05,28,12,57,23.20
2005,05,28,12,58,23.20
2005,05,28,12,59,23.00
2005,05,28,13,00,22.90
2005,05,28,13,01,22.90
2005,05,28,13,02,22.90
2005,05,28,13,03,22.90
2005,05,28,13,04,22.90
2005,05,28,13,05,22.90
2005,05,28,13,06,23.00
2005,05,28,13,07,23.20
2005,05,28,13,08,23.40
2005,05,28,13,09,23.60
2005,05,28,13,10,23.60
2005,05,28,13,11,23.50
2005,05,28,13,12,23.40
2005,05,28,13,13,23.30
2005,05,28,13,14,23.30
2005,05,28,13,15,23.30
2005,05,28,13,16,23.20
2005,05,28,13,17,23.20
2005,05,28,13,18,23.20
2005,05,28,13,19,23.10
2005,05,28,13,20,23.00
2005,05,28,13,21,22.90
2005,05,28,13,22,23.00
2005,05,28,13,23,23.10
2005,05,28,13,24,23.10
2005,05,28,13,25,23.10
2005,05,28,13,26,23.00
2005,05,28,13,27,22.90
2005,05,28,13,28,22.90
2005,05,28,13,29,22.90
2005,05,28,13,30,23.00
2005,05,28,13,31,23.10
2005,05,28,13,32,23.10
2005,05,28,13,33,23.10
2005,05,28,13,34,23.20
2005,05,28,13,35,23.20
2005,05,28,13,36,23.10
2005,05,28,13,37,23.00
2005,05,28,13,38,22.90
2005,05,28,13,39,22.90
2005,05,28,13,40,22.90
2005,05,28,13,41,22.90
2005,05,28,13,42,22.90
2005,05,28,13,43,23.00
2005,05,28,13,44,23.10
2005,05,28,13,45,23.20
2005,05,28,13,46,23.30
2005,05,28,13,47,23.30
2005,05,28,13,48,23.30
2005,05,28,13,49,23.30
2005,05,28,13,50,23.30
2005,05,28,13,51,23.40
2005,05,28,13,52,23.60
2005,05,28,13,53,23.70
2005,05,28,13,54,23.70
2005,05,28,13,55,23.70
2005,05,28,13,56,23.70
2005,05,28,13,57,23.70
2005,05,28,13,58,23.70
2005,05,28,13,59,23.70
2005,05,28,14,00,23.70
2005,05,28,14,01,23.70
2005,05,28,14,02,23.40
2005,05,28,14,03,23.30
2005,05,28,14,04,23.20
2005,05,28,14,05,23.10
2005,05,28,14,06,23.10
2005,05,28,14,07,23.10
2005,05,28,14,08,23.10
2005,05,28,14,09,23.20
2005,05,28,14,10,23.20
2005,05,28,14,11,23.20
2005,05,28,14,12,23.30
2005,05,28,14,13,23.30
2005,05,28,14,14,23.30
2005,05,28,14,15,23.30
2005,05,28,14,16,23.30
2005,05,28,14,17,23.30
2005,05,28,14,18,23.30
2005,05,28,14,19,23.30
2005,05,28,14,20,23.40
2005,05,28,14,21,23.50
2005,05,28,14,22,23.60
2005,05,28,14,23,23.60
2005,05,28,14,24,23.70
2005,05,28,14,25,23.70
2005,05,28,14,26,23.90
2005,05,28,14,27,24.00
2005,05,28,14,28,24.10
2005,05,28,14,29,24.10
2005,05,28,14,30,24.10
2005,05,28,14,31,23.90
2005,05,28,14,32,23.80
2005,05,28,14,33,23.70
2005,05,28,14,34,23.70
2005,05,28,14,35,23.50
2005,05,28,14,36,23.40
2005,05,28,14,37,23.30
2005,05,28,14,38,23.30
2005,05,28,14,39,23.30
2005,05,28,14,40,23.20
2005,05,28,14,41,23.20
2005,05,28,14,42,23.00
2005,05,28,14,43,22.80
2005,05,28,14,44,22.70
2005,05,28,14,45,22.70
2005,05,28,14,46,22.60
2005,05,28,14,47,22.60
2005,05,28,14,48,22.60
2005,05,28,14,49,22.50
2005,05,28,14,50,22.40
2005,05,28,14,51,22.40
2005,05,28,14,52,22.40
2005,05,28,14,53,22.40
2005,05,28,14,54,22.50
2005,05,28,14,55,22.70
2005,05,28,14,56,22.90
2005,05,28,14,57,23.00
2005,05,28,14,58,23.10
2005,05,28,14,59,23.20
2005,05,28,15,00,23.30
2005,05,28,15,01,23.30
2005,05,28,15,02,23.30
2005,05,28,15,03,23.30
2005,05,28,15,04,23.50
2005,05,28,15,05,23.70
2005,05,28,15,06,23.80
2005,05,28,15,07,23.90
2005,05,28,15,08,23.90
2005,05,28,15,09,24.00
2005,05,28,15,10,24.10
2005,05,28,15,11,24.10
2005,05,28,15,12,24.10
2005,05,28,15,13,24.10
2005,05,28,15,14,24.10
2005,05,28,15,15,24.20
2005,05,28,15,16,24.40
2005,05,28,15,17,24.40
2005,05,28,15,18,24.40
2005,05,28,15,19,24.40
2005,05,28,15,20,24.50
2005,05,28,15,21,24.60
2005,05,28,15,22,24.60
2005,05,28,15,23,24.60
2005,05,28,15,24,24.60
2005,05,28,15,25,24.60
2005,05,28,15,26,24.60
2005,05,28,15,27,24.60
2005,05,28,15,28,24.60
2005,05,28,15,29,24.60
2005,05,28,15,30,24.70
2005,05,28,15,31,24.70
2005,05,28,15,32,24.70
2005,05,28,15,33,24.60
2005,05,28,15,34,24.70
2005,05,28,15,35,24.80
2005,05,28,15,36,24.90
2005,05,28,15,37,24.90
2005,05,28,15,38,24.90
2005,05,28,15,39,24.80
2005,05,28,15,40,24.80
2005,05,28,15,41,24.80
2005,05,28,15,42,24.80
2005,05,28,15,43,24.80
2005,05,28,15,44,24.80
2005,05,28,15,45,24.80
2005,05,28,15,46,24.90
2005,05,28,15,47,25.00
2005,05,28,15,48,25.00
2005,05,28,15,49,25.00
2005,05,28,15,50,24.90
2005,05,28,15,51,24.90
2005,05,28,15,52,24.90
2005,05,28,15,53,24.90
2005,05,28,15,54,24.90
2005,05,28,15,55,24.90
2005,05,28,15,56,24.80
2005,05,28,15,57,24.80
2005,05,28,15,58,24.80
2005,05,28,15,59,24.70
2005,05,28,16,00,24.60
2005,05,28,16,01,24.60
2005,05,28,16,02,24.60
2005,05,28,16,03,24.70
2005,05,28,16,04,24.70
2005,05,28,16,05,24.80
2005,05,28,16,06,24.70
2005,05,28,16,07,24.60
2005,05,28,16,08,24.50
2005,05,28,16,09,24.50
2005,05,28,16,10,24.50
2005,05,28,16,11,24.50
2005,05,28,16,12,24.60
2005,05,28,16,13,24.60
2005,05,28,16,14,24.60
2005,05,28,16,15,24.60
2005,05,28,16,16,24.50
2005,05,28,16,17,24.40
2005,05,28,16,18,24.40
2005,05,28,16,19,24.40
2005,05,28,16,20,24.40
2005,05,28,16,21,24.40
2005,05,28,16,22,24.40
2005,05,28,16,23,24.50
2005,05,28,16,24,24.60
2005,05,28,16,25,24.60
2005,05,28,16,26,24.60
2005,05,28,16,27,24.50
2005,05,28,16,28,24.50
2005,05,28,16,29,24.50
2005,05,28,16,30,24.60
2005,05,28,16,31,24.60
2005,05,28,16,32,24.70
2005,05,28,16,33,24.70
2005,05,28,16,34,24.70
2005,05,28,16,35,24.70
2005,05,28,16,36,24.70
2005,05,28,16,37,24.70
2005,05,28,16,38,24.70
2005,05,28,16,39,24.70
2005,05,28,16,40,24.70
2005,05,28,16,41,24.70
2005,05,28,16,42,24.70
2005,05,28,16,43,24.80
2005,05,28,16,44,24.90
2005,05,28,16,45,25.00
2005,05,28,16,46,25.10
2005,05,28,16,47,25.10
2005,05,28,16,48,25.10
2005,05,28,16,49,25.00
2005,05,28,16,50,24.90
2005,05,28,16,51,25.00
2005,05,28,16,52,25.00
2005,05,28,16,53,25.10
2005,05,28,16,54,25.10
2005,05,28,16,55,25.10
2005,05,28,16,56,25.10
2005,05,28,16,57,25.20
2005,05,28,16,58,25.20
2005,05,28,16,59,25.10
2005,05,28,17,00,24.90
2005,05,28,17,01,24.90
2005,05,28,17,02,24.90
2005,05,28,17,03,24.90
2005,05,28,17,04,24.90
2005,05,28,17,05,24.90
2005,05,28,17,06,24.90
2005,05,28,17,07,24.90
2005,05,28,17,08,24.90
2005,05,28,17,09,24.90
2005,05,28,17,10,25.00
2005,05,28,17,11,25.00
2005,05,28,17,12,25.00
2005,05,28,17,13,25.00
2005,05,28,17,14,24.90
2005,05,28,17,15,24.90
2005,05,28,17,16,24.80
2005,05,28,17,17,24.70
2005,05,28,17,18,24.60
2005,05,28,17,19,24.50
2005,05,28,17,20,24.50
2005,05,28,17,21,24.50
2005,05,28,17,22,24.40
2005,05,28,17,23,24.40
2005,05,28,17,24,24.40
2005,05,28,17,25,24.40
2005,05,28,17,26,24.50
2005,05,28,17,27,24.60
2005,05,28,17,28,24.60
2005,05,28,17,29,24.60
2005,05,28,17,30,24.50
2005,05,28,17,31,24.40
2005,05,28,17,32,24.30
2005,05,28,17,33,24.30
2005,05,28,17,34,24.20
2005,05,28,17,35,24.20
2005,05,28,17,36,24.10
2005,05,28,17,37,24.10
2005,05,28,17,38,24.00
2005,05,28,17,39,23.90
2005,05,28,17,40,23.90
2005,05,28,17,41,23.80
2005,05,28,17,42,23.80
2005,05,28,17,43,23.70
2005,05,28,17,44,23.70
2005,05,28,17,45,23.70
2005,05,28,17,46,23.70
2005,05,28,17,47,23.70
2005,05,28,17,48,23.60
2005,05,28,17,49,23.60
2005,05,28,17,50,23.70
2005,05,28,17,51,23.60
2005,05,28,17,52,23.70
2005,05,28,17,53,23.70